Weather in Shanghai

China     31°13′54″N   121°28′10″E
temp.,
°C
wind,
m/s
gust,
m/s
humid.,
%
clouds,
%
prec.,
mm/h
press.,
hPa
HPBL,
m
21 april, wed
wed2123:00+15se51279100 0.0 1018619
02:00+16se51279100 0.0 1017620
05:00+16se41277100 0.0 1016673
08:00+18se6116931 0.0 1017811
11:00+20se6106487 0.0 1017970
14:00+23se7105545 0.0 10151252
17:00+21se611635 0.0 1015892
20:00+18se6137634 0.0 1016724
22 april, thu
thu2223:00+17se513807 0.0 1015737
02:00+17se51384100 0.0 1013653
05:00+17se5138664 0.0 1012604
08:00+20se51067100 0.0 1013923
11:00+24sse6856100 0.0 10131294
14:00+21s4780100 0.8 1011743
17:00+19sse3792100 1.9 1011478
20:00+18sse259579 1.9 1012265
23 april, fri
fri2323:00+18s2497100 0.0 1013245
02:00+18sw1297100 0.1 1012106
05:00+17nnw1396100 0.0 1012119
08:00+18nnw2489100 0.0 1014295
11:00+20n237988 0.0 1014597
14:00+23ne326795 0.0 10131003
17:00+21ene347575 0.0 1013491
20:00+18ene248987 0.1 1015307
24 april, sat
sat2423:00+18se2490100 0.1 1016350
02:00+18ese2590100 0.1 1015331
05:00+18e2687100 0.0 1016275
08:00+19ese2580100 0.0 1018354
11:00+22ese575993 0.0 10181141
14:00+23ese565397 0.0 10181347
17:00+20ese5766100 0.0 1018725
20:00+18e41080100 0.0 1019487
25 april, sun
sun2523:00+17e3984100 0.0 1020454
02:00+16e3888100 0.0 1019423
05:00+16ene41084100 0.0 1019502
08:00+17e4971100 0.0 1019525
11:00+21e5751100 0.0 1019920
14:00+21e4546100 0.0 1018968
17:00+18e4554100 0.0 1018555
20:00+17e3661100 0.0 1019407